Weather in Ostashevskaya

Russia / Arkhangel'skaya Oblast'     61°25′23″N   38°35′03″E
temp.,
°C
wind,
m/s
gust,
m/s
humid.,
%
clouds,
%
prec.,
mm/h
press.,
hPa
HPBL,
m
21 april, wed
wed2100:000ese2880100 0.0 1022136
03:00−1e2786100 0.0 1021119
06:00+1e31180100 0.0 1017298
09:00+5e41261100 0.0 1013632
12:00+4ese51269100 0.5 10101123
15:00+3ese51192100 1.8 1007975
18:00+2ese41397100 2.5 1004937
21:00+2se51197100 5.6 10021109
22 april, thu
thu2200:00+1s51097100 0.8 1003913
03:00+1s41097100 1.0 1005794
06:00+1ssw4994100 0.2 1005988
09:00+3s41195100 0.2 1006620
12:00+4ssw51093100 0.6 1007992
15:00+5ssw3990100 0.7 1008775
18:00+7ssw3108640 0.3 1009636
21:00+4s259519 0.3 101192
23 april, fri
fri2300:00+3sse289826 0.0 1011172
03:00+3sse399988 0.0 1012229
06:00+4sse31297100 0.0 1011370
09:00+8sse51384100 0.0 1011652
12:00+11sse51177100 0.0 10101039
15:00+9s31089100 0.2 1011709
18:00+10s41079100 0.1 1011907
21:00+7ssw2796100 0.1 1012260
24 april, sat
sat2400:00+6s2497100 1.4 1013165
03:00+5sse1498100 2.1 1013211
06:00+6ese2897100 0.1 1012395
09:00+9se4128285 0.2 1010656
12:00+14se6115844 0.1 10091798
15:00+15se5115256 0.1 10071949
18:00+13se5116165 0.5 10061335
21:00+9ese4127710 0.4 1007453
25 april, sun
sun2500:00+7ese413855 0.0 1006570
03:00+6e411915 0.0 1006464
06:00+5e412884 0.0 1005528
09:00+9e58635 0.0 10041084
12:00+8e4760100 0.0 10041312
15:00+9e3660100 0.1 10041116
18:00+9ene246289 0.0 1003873
21:00+6e2684100 0.3 1003163